Regional Weather Roundup
Issued by NWS

Home | Current Version | Previous Version | Graphics & Text | Print | Product List | Glossary On
Versions: 1 2 3 4 5 6 7 8 9 10 11 12 13 14 15 16 17 18 19 20 21 22 23 24 25 26 27 28 29 30 31 32 33 34 35 36 37 38 39 40 41 42 43 44 45 46 47 48 49
000
ASUS45 KCYS 032010
RWRWY

WYOMING REGIONAL WEATHER ROUNDUP
NATIONAL WEATHER SERVICE CHEYENNE WY
200 PM MDT FRI JUL 03 2015

NOTE:  "FAIR" INDICATES FEW OR NO CLOUDS BELOW 12,000 FEET
WITH NO SIGNIFICANT WEATHER AND/OR OBSTRUCTIONS TO VISIBILITY.

WYZ001-032100-
YELLOWSTONE NATIONAL PARK

CITY           SKY/WX    TMP DP  RH WIND       PRES   REMARKS
LK YELLOWSTONE   N/A     79  26  14 NW8G22    30.24F
W YELLOWSTONE  NOT AVBL

$$
WYZ002>013-054>058-071-098>099-032100-
NORTHERN WYOMING

CITY           SKY/WX    TMP DP  RH WIND       PRES   REMARKS
JACKSON        PTSUNNY   84  41  21 SW9       30.14F
CODY           FAIR      84  48  28 E10       30.02F
GREYBULL       FAIR      89  47  23 SW6       29.94F
WORLAND        FAIR      91  46  21 E10       29.96F
SHERIDAN       FAIR      87  49  26 SE9       30.00F
BUFFALO        FAIR      83  49  30 S9        30.07F
GILLETTE       FAIR      83  52  34 VRB7      30.04F
HULETT         FAIR      79  55  44 S7        30.07F
NEWCASTLE      FAIR      77  52  41 CALM      30.09F

$$
WYZ014>020-022>026-101>103-032100-
CENTRAL WYOMING

CITY           SKY/WX    TMP DP  RH WIND       PRES   REMARKS
BIG PINEY      FAIR      86  40  19 S10       30.20F
PINEDALE       FAIR      81  37  21 NE6       30.21F
DUBOIS         MOCLDY    79  34  19 W17G31    30.17S
LANDER         FAIR      84  56  38 N6        30.07F
RIVERTON       FAIR      85  53  33 CALM      30.07F
CASPER         FAIR      85  49  28 S7        30.08F
DOUGLAS        FAIR      84  55  36 E12G17    30.09F

$$
WYZ021-027>030-104>119-032100-
SOUTHERN WYOMING

CITY           SKY/WX    TMP DP  RH WIND       PRES   REMARKS
EVANSTON       FAIR      85  36  17 SW10G17   30.23F
KEMMERER       FAIR      86  32  14 NW9G21    30.24F
FORT BRIDGER   CLEAR     88  32  13 CALM      30.25F
ROCK SPRINGS   FAIR      83  35  18 VRB3      30.19F
DIXON          FAIR      85  33  15 S3        30.20F
RAWLINS        FAIR      81  41  24 S6        30.20F
SARATOGA       FAIR      81  36  19 NW3       30.24F
LARAMIE        FAIR      80  41  24 E8        30.23F
CHEYENNE       FAIR      77  57  50 VRB7      30.18F
TORRINGTON     FAIR      83  55  38 VRB7      30.07F
PINE BLUFFS    FAIR      77  54  44 SW9       30.14F

$$


USA.gov is the U.S. government's official web portal to all federal, state and local government web resources and services.